DAL2020 KSLC-KSMF

Flight info

Callsign DAL2020
Flight time 1h 18m
Altitude 34000
Route DEZRT2 BAM J32 LLC ANAHO SLMMR5
Aircraft A319/M-SDE3FGHIRWY/LB1

Departure

Time 2026-05-06 23:52
Airport Salt Lake City International Airport (KSLC)

Arrival

Time 2026-05-07 01:11
Airport Sacramento International Airport (KSMF)
Time Latitude Longitude Altitude Speed Heading
2026-05-06 23:31 40.78656 -111.98156 4234 ft 0 kts 174°
2026-05-06 23:44 40.78657 -111.98156 4233 ft 2 kts 174°
2026-05-06 23:45 40.78682 -111.98160 4233 ft 4 kts 168°
2026-05-06 23:45 40.78707 -111.98170 4232 ft 4 kts 150°
2026-05-06 23:45 40.78725 -111.98191 4230 ft 4 kts 99°
2026-05-06 23:45 40.78726 -111.98205 4231 ft 1 kts 86°
2026-05-06 23:46 40.78726 -111.98206 4231 ft 0 kts 86°
2026-05-06 23:47 40.78727 -111.98178 4232 ft 8 kts 86°
2026-05-06 23:48 40.78733 -111.98080 4232 ft 14 kts 84°
2026-05-06 23:48 40.78742 -111.97954 4233 ft 13 kts 86°
2026-05-06 23:48 40.78751 -111.97824 4234 ft 18 kts 84°
2026-05-06 23:48 40.78723 -111.97681 4233 ft 17 kts 159°
2026-05-06 23:49 40.78610 -111.97664 4233 ft 16 kts 174°
2026-05-06 23:49 40.78487 -111.97647 4228 ft 20 kts 174°
2026-05-06 23:49 40.78345 -111.97630 4227 ft 21 kts 175°
2026-05-06 23:49 40.78205 -111.97616 4227 ft 20 kts 175°
2026-05-06 23:50 40.78065 -111.97601 4225 ft 20 kts 175°
2026-05-06 23:50 40.77814 -111.97524 4228 ft 18 kts 174°
2026-05-06 23:50 40.77694 -111.97508 4231 ft 17 kts 175°
2026-05-06 23:51 40.77577 -111.97494 4230 ft 18 kts 174°
2026-05-06 23:51 40.77456 -111.97460 4229 ft 18 kts 130°
2026-05-06 23:51 40.77505 -111.97332 4227 ft 17 kts 27°
2026-05-06 23:51 40.77620 -111.97334 4228 ft 23 kts 357°
2026-05-06 23:52 40.78016 -111.97381 4228 ft 90 kts 354°
2026-05-06 23:52 40.78826 -111.97476 4233 ft 144 kts 355°
2026-05-06 23:52 40.79955 -111.97603 4430 ft 168 kts 353°
2026-05-06 23:52 40.81063 -111.97957 5031 ft 165 kts 326°
2026-05-06 23:53 40.81807 -111.99109 5551 ft 169 kts 296°
2026-05-06 23:53 40.82209 -112.00580 6098 ft 173 kts 286°
2026-05-06 23:53 40.82432 -112.02172 6624 ft 179 kts 277°
2026-05-06 23:53 40.82612 -112.03833 7021 ft 191 kts 292°
2026-05-06 23:54 40.83337 -112.05395 7325 ft 207 kts 302°
2026-05-06 23:54 40.83816 -112.07236 7842 ft 220 kts 280°
2026-05-06 23:54 40.83977 -112.09306 8333 ft 235 kts 275°
2026-05-06 23:54 40.84078 -112.11570 8665 ft 259 kts 275°
2026-05-06 23:55 40.84205 -112.14003 8992 ft 276 kts 276°
2026-05-06 23:55 40.84381 -112.16550 9420 ft 280 kts 277°
2026-05-06 23:55 40.84601 -112.19121 10041 ft 283 kts 278°
2026-05-06 23:55 40.84854 -112.21731 10638 ft 296 kts 279°
2026-05-06 23:56 40.85144 -112.24531 10735 ft 314 kts 280°
2026-05-06 23:56 40.85451 -112.27402 11344 ft 319 kts 280°
2026-05-06 23:56 40.85768 -112.30324 11972 ft 323 kts 281°
2026-05-06 23:56 40.86085 -112.33290 12553 ft 328 kts 281°
2026-05-06 23:57 40.86404 -112.36283 13348 ft 329 kts 281°
2026-05-06 23:57 40.86727 -112.39296 14061 ft 333 kts 282°
2026-05-06 23:57 40.87042 -112.42305 14705 ft 338 kts 281°
2026-05-06 23:57 40.87084 -112.45442 14953 ft 345 kts 270°
2026-05-06 23:58 40.86873 -112.48612 15014 ft 346 kts 269°
2026-05-06 23:58 40.86657 -112.51783 15012 ft 346 kts 269°
2026-05-06 23:58 40.86439 -112.54944 15010 ft 346 kts 269°
2026-05-06 23:58 40.86221 -112.58113 15010 ft 346 kts 269°
2026-05-06 23:59 40.85989 -112.61281 15017 ft 347 kts 269°
2026-05-06 23:59 40.85734 -112.64444 15028 ft 347 kts 268°
2026-05-06 23:59 40.85471 -112.67575 15011 ft 347 kts 268°
2026-05-06 23:59 40.85205 -112.70745 15011 ft 347 kts 268°
2026-05-07 00:00 40.84941 -112.73914 15012 ft 347 kts 268°
2026-05-07 00:00 40.84676 -112.77090 15022 ft 348 kts 268°
2026-05-07 00:00 40.84413 -112.80262 15011 ft 347 kts 268°
2026-05-07 00:00 40.84241 -112.82356 15011 ft 346 kts 269°
2026-05-07 00:01 40.84183 -112.86596 15248 ft 348 kts 275°
2026-05-07 00:01 40.84202 -112.89793 15999 ft 349 kts 275°
2026-05-07 00:01 40.84215 -112.92975 16643 ft 353 kts 275°
2026-05-07 00:01 40.84225 -112.96227 17262 ft 356 kts 276°
2026-05-07 00:02 40.84235 -112.99518 17866 ft 360 kts 276°
2026-05-07 00:02 40.84243 -113.02839 18469 ft 364 kts 276°
2026-05-07 00:02 40.84251 -113.06196 19041 ft 367 kts 276°
2026-05-07 00:02 40.84257 -113.09587 19616 ft 371 kts 276°
2026-05-07 00:03 40.84262 -113.13007 20179 ft 374 kts 276°
2026-05-07 00:03 40.84270 -113.16464 20728 ft 378 kts 276°
2026-05-07 00:03 40.84278 -113.19908 21249 ft 382 kts 276°
2026-05-07 00:03 40.84285 -113.23427 21771 ft 385 kts 276°
2026-05-07 00:04 40.84290 -113.26982 22292 ft 388 kts 276°
2026-05-07 00:04 40.84292 -113.30562 22780 ft 392 kts 276°
2026-05-07 00:04 40.84292 -113.34175 23268 ft 395 kts 276°
2026-05-07 00:04 40.84292 -113.37813 23747 ft 398 kts 276°
2026-05-07 00:05 40.84288 -113.41486 24194 ft 402 kts 276°
2026-05-07 00:05 40.84283 -113.45193 24632 ft 405 kts 276°
2026-05-07 00:05 40.84277 -113.48927 25069 ft 408 kts 276°
2026-05-07 00:05 40.84271 -113.52688 25510 ft 411 kts 276°
2026-05-07 00:06 40.84261 -113.56414 25951 ft 412 kts 276°
2026-05-07 00:06 40.84250 -113.60205 26365 ft 414 kts 276°
2026-05-07 00:06 40.84241 -113.64024 26751 ft 417 kts 276°
2026-05-07 00:06 40.84231 -113.67862 27137 ft 419 kts 276°
2026-05-07 00:07 40.84218 -113.71724 27528 ft 421 kts 276°
2026-05-07 00:07 40.84203 -113.75602 27906 ft 424 kts 276°
2026-05-07 00:07 40.84188 -113.79503 28286 ft 426 kts 276°
2026-05-07 00:07 40.84171 -113.83418 28650 ft 428 kts 276°
2026-05-07 00:08 40.84152 -113.87300 28997 ft 430 kts 276°
2026-05-07 00:08 40.84131 -113.91256 29340 ft 432 kts 276°
2026-05-07 00:08 40.84107 -113.95231 29699 ft 434 kts 276°
2026-05-07 00:08 40.84080 -113.99226 30047 ft 436 kts 276°
2026-05-07 00:09 40.84054 -114.03238 30377 ft 438 kts 276°
2026-05-07 00:09 40.84024 -114.07269 30700 ft 440 kts 276°
2026-05-07 00:09 40.83993 -114.11320 31017 ft 442 kts 276°
2026-05-07 00:09 40.83961 -114.15379 31322 ft 444 kts 276°
2026-05-07 00:10 40.83929 -114.19463 31615 ft 446 kts 276°
2026-05-07 00:10 40.83895 -114.23511 31900 ft 448 kts 275°
2026-05-07 00:10 40.83859 -114.27615 32263 ft 447 kts 275°
2026-05-07 00:10 40.83822 -114.31713 32683 ft 445 kts 276°
2026-05-07 00:11 40.83810 -114.33095 32826 ft 445 kts 276°
2026-05-07 00:11 40.83707 -114.43538 33804 ft 441 kts 276°
2026-05-07 00:11 40.83664 -114.47534 34088 ft 441 kts 276°
2026-05-07 00:12 40.83570 -114.55507 34156 ft 426 kts 276°
2026-05-07 00:12 40.83475 -114.63284 34155 ft 422 kts 275°
2026-05-07 00:13 40.83382 -114.70945 34144 ft 412 kts 275°
2026-05-07 00:13 40.82960 -114.78438 34146 ft 415 kts 268°
2026-05-07 00:14 40.82109 -114.85977 34146 ft 415 kts 267°
2026-05-07 00:14 40.81248 -114.93501 34149 ft 415 kts 268°
2026-05-07 00:15 40.80395 -115.01024 34147 ft 414 kts 268°
2026-05-07 00:15 40.79543 -115.08541 34145 ft 414 kts 267°
2026-05-07 00:16 40.78685 -115.16000 34184 ft 414 kts 267°
2026-05-07 00:16 40.77811 -115.23507 34169 ft 414 kts 267°
2026-05-07 00:17 40.76929 -115.31021 34159 ft 414 kts 267°
2026-05-07 00:17 40.76046 -115.38526 34154 ft 414 kts 267°
2026-05-07 00:18 40.75159 -115.46036 34149 ft 414 kts 267°
2026-05-07 00:18 40.74276 -115.53485 34144 ft 414 kts 267°
2026-05-07 00:19 40.73383 -115.60988 34139 ft 415 kts 267°
2026-05-07 00:19 40.72485 -115.68497 34136 ft 415 kts 266°
2026-05-07 00:20 40.71586 -115.76007 34135 ft 415 kts 266°
2026-05-07 00:20 40.70681 -115.83471 34138 ft 415 kts 266°
2026-05-07 00:21 40.69761 -115.90991 34138 ft 416 kts 266°
2026-05-07 00:21 40.68823 -115.98511 34140 ft 416 kts 266°
2026-05-07 00:22 40.67899 -116.06036 34141 ft 416 kts 266°
2026-05-07 00:22 40.66987 -116.13512 34143 ft 416 kts 266°
2026-05-07 00:23 40.66052 -116.21025 34144 ft 416 kts 266°
2026-05-07 00:23 40.65099 -116.28542 34147 ft 416 kts 266°
2026-05-07 00:24 40.64144 -116.36056 34150 ft 416 kts 266°
2026-05-07 00:24 40.63195 -116.43564 34151 ft 416 kts 265°
2026-05-07 00:25 40.62250 -116.51013 34172 ft 416 kts 265°
2026-05-07 00:25 40.61284 -116.58518 34167 ft 416 kts 265°
2026-05-07 00:26 40.60317 -116.66024 34167 ft 416 kts 265°
2026-05-07 00:26 40.59346 -116.73530 34164 ft 416 kts 265°
2026-05-07 00:27 40.58380 -116.80984 34165 ft 416 kts 265°
2026-05-07 00:27 40.57397 -116.88477 34164 ft 416 kts 265°
2026-05-07 00:28 40.55968 -116.95876 34160 ft 421 kts 256°
2026-05-07 00:28 40.54065 -117.03164 34159 ft 421 kts 256°
2026-05-07 00:29 40.52163 -117.10449 34156 ft 421 kts 256°
2026-05-07 00:30 40.48679 -117.23753 34150 ft 421 kts 256°
2026-05-07 00:30 40.46631 -117.31558 34145 ft 421 kts 256°
2026-05-07 00:31 40.44716 -117.38815 34139 ft 421 kts 256°
2026-05-07 00:31 40.42806 -117.46018 34138 ft 421 kts 256°
2026-05-07 00:32 40.40879 -117.53268 34137 ft 421 kts 256°
2026-05-07 00:32 40.38951 -117.60528 34134 ft 421 kts 256°
2026-05-07 00:33 40.37019 -117.67784 34135 ft 422 kts 255°
2026-05-07 00:33 40.35090 -117.75001 34131 ft 422 kts 255°
2026-05-07 00:34 40.33131 -117.82267 34130 ft 423 kts 255°
2026-05-07 00:34 40.31171 -117.89538 34123 ft 423 kts 255°
2026-05-07 00:35 40.29214 -117.96812 34120 ft 423 kts 255°
2026-05-07 00:35 40.27251 -118.04081 34120 ft 424 kts 255°
2026-05-07 00:36 40.25291 -118.11298 34155 ft 424 kts 255°
2026-05-07 00:36 40.23305 -118.18578 34144 ft 425 kts 255°
2026-05-07 00:37 40.21314 -118.25849 34133 ft 424 kts 255°
2026-05-07 00:37 40.19319 -118.33116 34127 ft 424 kts 255°
2026-05-07 00:38 40.17341 -118.40328 34163 ft 424 kts 255°
2026-05-07 00:38 40.15341 -118.47584 34122 ft 424 kts 255°
2026-05-07 00:39 40.13340 -118.54828 34118 ft 424 kts 255°
2026-05-07 00:39 40.11679 -118.62162 34116 ft 420 kts 261°
2026-05-07 00:40 40.10263 -118.69560 34113 ft 420 kts 260°
2026-05-07 00:40 40.08842 -118.76903 34115 ft 420 kts 260°
2026-05-07 00:41 40.07406 -118.84289 34118 ft 419 kts 260°
2026-05-07 00:41 40.05973 -118.91652 34118 ft 418 kts 260°
2026-05-07 00:42 40.04540 -118.99006 34115 ft 418 kts 260°
2026-05-07 00:42 40.03109 -119.06293 34117 ft 418 kts 260°
2026-05-07 00:43 40.01661 -119.13626 34120 ft 417 kts 259°
2026-05-07 00:43 40.00204 -119.20955 34124 ft 417 kts 259°
2026-05-07 00:44 39.98754 -119.28267 34124 ft 417 kts 259°
2026-05-07 00:44 39.97311 -119.35552 34125 ft 418 kts 259°
2026-05-07 00:45 39.95395 -119.42721 34129 ft 424 kts 245°
2026-05-07 00:45 39.92128 -119.49179 34136 ft 428 kts 239°
2026-05-07 00:46 39.90447 -119.52375 33920 ft 426 kts 240°
2026-05-07 00:46 39.88786 -119.55545 33670 ft 423 kts 240°
2026-05-07 00:46 39.87138 -119.58699 33421 ft 420 kts 240°
2026-05-07 00:46 39.85493 -119.61847 33173 ft 420 kts 240°
2026-05-07 00:47 39.83877 -119.64933 32923 ft 418 kts 240°
2026-05-07 00:47 39.82249 -119.68033 32588 ft 413 kts 240°
2026-05-07 00:47 39.80632 -119.71106 32084 ft 411 kts 239°
2026-05-07 00:47 39.79021 -119.74162 31617 ft 408 kts 239°
2026-05-07 00:48 39.77418 -119.77201 31148 ft 406 kts 239°
2026-05-07 00:48 39.75825 -119.80220 30701 ft 404 kts 239°
2026-05-07 00:48 39.74238 -119.83229 30243 ft 403 kts 239°
2026-05-07 00:48 39.72659 -119.86218 29812 ft 400 kts 239°
2026-05-07 00:49 39.71085 -119.89191 29390 ft 398 kts 239°
2026-05-07 00:49 39.69541 -119.92105 28981 ft 396 kts 239°
2026-05-07 00:49 39.67984 -119.95046 28553 ft 394 kts 239°
2026-05-07 00:49 39.66437 -119.97969 28136 ft 392 kts 239°
2026-05-07 00:50 39.64895 -120.00878 27709 ft 390 kts 239°
2026-05-07 00:50 39.63362 -120.03760 27287 ft 388 kts 238°
2026-05-07 00:50 39.61832 -120.06632 26852 ft 386 kts 238°
2026-05-07 00:50 39.60312 -120.09488 26407 ft 384 kts 238°
2026-05-07 00:51 39.58798 -120.12335 25965 ft 382 kts 238°
2026-05-07 00:51 39.57292 -120.15163 25520 ft 380 kts 238°
2026-05-07 00:51 39.55816 -120.17930 25086 ft 378 kts 238°
2026-05-07 00:51 39.54321 -120.20720 24612 ft 376 kts 238°
2026-05-07 00:52 39.52832 -120.23500 24150 ft 374 kts 238°
2026-05-07 00:52 39.51355 -120.26258 23705 ft 372 kts 238°
2026-05-07 00:52 39.49885 -120.29000 23218 ft 370 kts 238°
2026-05-07 00:52 39.48420 -120.31730 22769 ft 369 kts 237°
2026-05-07 00:53 39.46859 -120.34355 22314 ft 369 kts 229°
2026-05-07 00:53 39.44921 -120.36533 21873 ft 370 kts 216°
2026-05-07 00:53 39.42817 -120.38365 21421 ft 369 kts 215°
2026-05-07 00:53 39.40685 -120.40216 20969 ft 368 kts 215°
2026-05-07 00:54 39.38561 -120.42059 20519 ft 367 kts 215°
2026-05-07 00:54 39.36444 -120.43894 20076 ft 366 kts 215°
2026-05-07 00:54 39.34333 -120.45727 19618 ft 365 kts 215°
2026-05-07 00:54 39.32233 -120.47553 19174 ft 363 kts 215°
2026-05-07 00:55 39.30141 -120.49371 18736 ft 362 kts 215°
2026-05-07 00:55 39.28056 -120.51178 18268 ft 361 kts 214°
2026-05-07 00:55 39.25987 -120.52971 17754 ft 363 kts 214°
2026-05-07 00:55 39.23896 -120.54780 17308 ft 362 kts 214°
2026-05-07 00:56 39.21810 -120.56585 16860 ft 360 kts 214°
2026-05-07 00:56 39.19733 -120.58381 16466 ft 359 kts 214°
2026-05-07 00:56 39.17664 -120.60171 16019 ft 356 kts 214°
2026-05-07 00:56 39.15630 -120.61929 15533 ft 347 kts 214°
2026-05-07 00:57 39.13653 -120.63638 15133 ft 337 kts 214°
2026-05-07 00:57 39.11739 -120.65290 14735 ft 328 kts 214°
2026-05-07 00:57 39.09850 -120.66928 14332 ft 327 kts 216°
2026-05-07 00:57 39.08191 -120.68847 13930 ft 326 kts 230°
2026-05-07 00:58 39.06944 -120.71257 13628 ft 321 kts 245°
2026-05-07 00:58 39.06147 -120.73915 13190 ft 318 kts 253°
2026-05-07 00:58 39.05455 -120.76584 12726 ft 312 kts 253°
2026-05-07 00:58 39.04773 -120.79230 12324 ft 312 kts 253°
2026-05-07 00:59 39.03407 -120.84503 11585 ft 310 kts 252°
2026-05-07 00:59 39.02723 -120.87122 11240 ft 306 kts 252°
2026-05-07 00:59 39.02047 -120.89705 10793 ft 303 kts 252°
2026-05-07 01:00 39.01388 -120.92220 10411 ft 300 kts 252°
2026-05-07 01:00 39.00726 -120.94753 10067 ft 299 kts 252°
2026-05-07 01:00 39.00066 -120.97278 9674 ft 297 kts 253°
2026-05-07 01:00 38.99409 -120.99787 9304 ft 295 kts 252°
2026-05-07 01:01 38.98754 -121.02279 8934 ft 294 kts 253°
2026-05-07 01:01 38.98102 -121.04750 8615 ft 291 kts 253°
2026-05-07 01:01 38.97455 -121.07210 8232 ft 289 kts 253°
2026-05-07 01:01 38.96814 -121.09654 7822 ft 288 kts 252°
2026-05-07 01:02 38.96187 -121.12044 7423 ft 285 kts 252°
2026-05-07 01:02 38.95558 -121.14443 7023 ft 282 kts 252°
2026-05-07 01:02 38.94931 -121.16824 6618 ft 280 kts 252°
2026-05-07 01:02 38.94306 -121.19183 6212 ft 278 kts 252°
2026-05-07 01:03 38.93687 -121.21523 5822 ft 276 kts 252°
2026-05-07 01:03 38.93072 -121.23847 5415 ft 274 kts 252°
2026-05-07 01:03 38.92458 -121.26156 5027 ft 272 kts 252°
2026-05-07 01:03 38.91851 -121.28448 4631 ft 271 kts 252°
2026-05-07 01:04 38.91249 -121.30712 4388 ft 260 kts 252°
2026-05-07 01:04 38.90691 -121.32794 4313 ft 241 kts 252°
2026-05-07 01:04 38.90165 -121.34760 4217 ft 227 kts 252°
2026-05-07 01:04 38.89656 -121.36675 4126 ft 227 kts 252°
2026-05-07 01:05 38.89148 -121.38587 4017 ft 226 kts 252°
2026-05-07 01:05 38.88808 -121.39849 3921 ft 226 kts 252°
2026-05-07 01:05 38.88101 -121.42379 3641 ft 225 kts 251°
2026-05-07 01:05 38.87564 -121.44260 3452 ft 224 kts 251°
2026-05-07 01:06 38.87035 -121.46114 3262 ft 224 kts 251°
2026-05-07 01:06 38.86498 -121.47987 3090 ft 222 kts 251°
2026-05-07 01:06 38.85972 -121.49817 2910 ft 216 kts 251°
2026-05-07 01:06 38.85463 -121.51586 2747 ft 207 kts 250°
2026-05-07 01:07 38.84976 -121.53285 2532 ft 199 kts 250°
2026-05-07 01:07 38.84506 -121.54931 2419 ft 195 kts 250°
2026-05-07 01:07 38.84045 -121.56553 2394 ft 193 kts 250°
2026-05-07 01:07 38.83444 -121.58087 2374 ft 194 kts 234°
2026-05-07 01:08 38.82460 -121.59254 2256 ft 194 kts 213°
2026-05-07 01:08 38.81235 -121.59867 2068 ft 185 kts 191°
2026-05-07 01:08 38.80045 -121.59947 1857 ft 163 kts 180°
2026-05-07 01:08 38.78965 -121.59916 1623 ft 148 kts 179°
2026-05-07 01:09 38.77968 -121.59906 1402 ft 140 kts 182°
2026-05-07 01:09 38.77011 -121.59929 1248 ft 137 kts 182°
2026-05-07 01:09 38.76068 -121.59964 1064 ft 135 kts 182°
2026-05-07 01:09 38.75132 -121.59994 875 ft 135 kts 181°
2026-05-07 01:10 38.74203 -121.60037 720 ft 134 kts 182°
2026-05-07 01:10 38.73286 -121.60077 559 ft 133 kts 181°
2026-05-07 01:10 38.72358 -121.60090 371 ft 134 kts 180°
2026-05-07 01:10 38.71432 -121.60105 196 ft 133 kts 180°
2026-05-07 01:11 38.70514 -121.60114 51 ft 132 kts 180°
2026-05-07 01:11 38.69703 -121.60128 30 ft 98 kts 181°
2026-05-07 01:11 38.69175 -121.60135 32 ft 36 kts 180°
2026-05-07 01:11 38.69060 -121.60048 32 ft 20 kts 93°
2026-05-07 01:12 38.69057 -121.59919 32 ft 10 kts 88°
2026-05-07 01:12 38.69106 -121.59875 31 ft 9 kts
2026-05-07 01:12 38.69184 -121.59871 33 ft 16 kts
2026-05-07 01:12 38.69341 -121.59868 31 ft 29 kts
2026-05-07 01:13 38.69556 -121.59866 33 ft 30 kts
2026-05-07 01:13 38.69702 -121.59799 34 ft 23 kts 79°
2026-05-07 01:13 38.69700 -121.59596 35 ft 23 kts 89°
2026-05-07 01:13 38.69697 -121.59391 34 ft 23 kts 92°
2026-05-07 01:14 38.69696 -121.59180 34 ft 24 kts 89°
2026-05-07 01:14 38.69693 -121.58998 33 ft 18 kts 90°
2026-05-07 01:14 38.69693 -121.58835 33 ft 19 kts 92°
2026-05-07 01:14 38.69687 -121.58660 32 ft 20 kts 103°
2026-05-07 01:15 38.69565 -121.58615 31 ft 19 kts 181°
2026-05-07 01:15 38.69458 -121.58618 31 ft 13 kts 181°
2026-05-07 01:15 38.69390 -121.58613 31 ft 8 kts 191°
2026-05-07 01:15 38.69355 -121.58644 30 ft 2 kts 215°
2026-05-07 01:16 38.69348 -121.58649 32 ft 0 kts 213°
2026-05-07 01:16 38.69347 -121.58650 31 ft 0 kts 213°